Year,Month,Day,Hour,Minute,Value (Times are PST for insolation in W/m^2)
2009,10,30,00,00,0.00
2009,10,30,00,01,0.00
2009,10,30,00,02,0.00
2009,10,30,00,03,0.00
2009,10,30,00,04,0.00
2009,10,30,00,05,0.00
2009,10,30,00,06,0.00
2009,10,30,00,07,0.00
2009,10,30,00,08,0.00
2009,10,30,00,09,0.00
2009,10,30,00,10,0.00
2009,10,30,00,11,0.00
2009,10,30,00,12,0.00
2009,10,30,00,13,0.00
2009,10,30,00,14,0.00
2009,10,30,00,15,0.00
2009,10,30,00,16,0.00
2009,10,30,00,17,0.00
2009,10,30,00,18,0.00
2009,10,30,00,19,0.00
2009,10,30,00,20,0.00
2009,10,30,00,21,0.00
2009,10,30,00,22,0.00
2009,10,30,00,23,0.00
2009,10,30,00,24,0.00
2009,10,30,00,25,0.00
2009,10,30,00,26,0.00
2009,10,30,00,27,0.00
2009,10,30,00,28,0.00
2009,10,30,00,29,0.00
2009,10,30,00,30,0.00
2009,10,30,00,31,0.00
2009,10,30,00,32,0.00
2009,10,30,00,33,0.00
2009,10,30,00,34,0.00
2009,10,30,00,35,0.00
2009,10,30,00,36,0.00
2009,10,30,00,37,0.00
2009,10,30,00,38,0.00
2009,10,30,00,39,0.00
2009,10,30,00,40,0.00
2009,10,30,00,41,0.00
2009,10,30,00,42,0.00
2009,10,30,00,43,0.00
2009,10,30,00,44,0.00
2009,10,30,00,45,0.00
2009,10,30,00,46,0.00
2009,10,30,00,47,0.00
2009,10,30,00,48,0.00
2009,10,30,00,49,0.00
2009,10,30,00,50,0.00
2009,10,30,00,51,0.00
2009,10,30,00,52,0.00
2009,10,30,00,53,0.00
2009,10,30,00,54,0.00
2009,10,30,00,55,0.00
2009,10,30,00,56,0.00
2009,10,30,00,57,0.00
2009,10,30,00,58,0.00
2009,10,30,00,59,0.00
2009,10,30,01,00,0.00
2009,10,30,01,01,0.00
2009,10,30,01,02,0.00
2009,10,30,01,03,0.00
2009,10,30,01,04,0.00
2009,10,30,01,05,0.00
2009,10,30,01,06,0.00
2009,10,30,01,07,0.00
2009,10,30,01,08,0.00
2009,10,30,01,09,0.00
2009,10,30,01,10,0.00
2009,10,30,01,11,0.00
2009,10,30,01,12,0.00
2009,10,30,01,13,0.00
2009,10,30,01,14,0.00
2009,10,30,01,15,0.00
2009,10,30,01,16,0.00
2009,10,30,01,17,0.00
2009,10,30,01,18,0.00
2009,10,30,01,19,0.00
2009,10,30,01,20,0.00
2009,10,30,01,21,0.00
2009,10,30,01,22,0.00
2009,10,30,01,23,0.00
2009,10,30,01,24,0.00
2009,10,30,01,25,0.00
2009,10,30,01,26,0.00
2009,10,30,01,27,0.00
2009,10,30,01,28,0.00
2009,10,30,01,29,0.00
2009,10,30,01,30,0.00
2009,10,30,01,31,0.00
2009,10,30,01,32,0.00
2009,10,30,01,33,0.00
2009,10,30,01,34,0.00
2009,10,30,01,35,0.00
2009,10,30,01,36,0.00
2009,10,30,01,37,0.00
2009,10,30,01,38,0.00
2009,10,30,01,39,0.00
2009,10,30,01,40,0.00
2009,10,30,01,41,0.00
2009,10,30,01,42,0.00
2009,10,30,01,43,0.00
2009,10,30,01,44,0.00
2009,10,30,01,45,0.00
2009,10,30,01,46,0.00
2009,10,30,01,47,0.00
2009,10,30,01,48,0.00
2009,10,30,01,49,0.00
2009,10,30,01,50,0.00
2009,10,30,01,51,0.00
2009,10,30,01,52,0.00
2009,10,30,01,53,0.00
2009,10,30,01,54,0.00
2009,10,30,01,55,0.00
2009,10,30,01,56,0.00
2009,10,30,01,57,0.00
2009,10,30,01,58,0.00
2009,10,30,01,59,0.00
2009,10,30,02,00,0.00
2009,10,30,02,01,0.00
2009,10,30,02,02,0.00
2009,10,30,02,03,0.00
2009,10,30,02,04,0.00
2009,10,30,02,05,0.00
2009,10,30,02,06,0.00
2009,10,30,02,07,0.00
2009,10,30,02,08,0.00
2009,10,30,02,09,0.00
2009,10,30,02,10,0.00
2009,10,30,02,11,0.00
2009,10,30,02,12,0.00
2009,10,30,02,13,0.00
2009,10,30,02,14,0.00
2009,10,30,02,15,0.00
2009,10,30,02,16,0.00
2009,10,30,02,17,0.00
2009,10,30,02,18,0.00
2009,10,30,02,19,0.00
2009,10,30,02,20,0.00
2009,10,30,02,21,0.00
2009,10,30,02,22,0.00
2009,10,30,02,23,0.00
2009,10,30,02,24,0.00
2009,10,30,02,25,0.00
2009,10,30,02,26,0.00
2009,10,30,02,27,0.00
2009,10,30,02,28,0.00
2009,10,30,02,29,0.00
2009,10,30,02,30,0.00
2009,10,30,02,31,0.00
2009,10,30,02,32,0.00
2009,10,30,02,33,0.00
2009,10,30,02,34,0.00
2009,10,30,02,35,0.00
2009,10,30,02,36,0.00
2009,10,30,02,37,0.00
2009,10,30,02,38,0.00
2009,10,30,02,39,0.00
2009,10,30,02,40,0.00
2009,10,30,02,41,0.00
2009,10,30,02,42,0.00
2009,10,30,02,43,0.00
2009,10,30,02,44,0.00
2009,10,30,02,45,0.00
2009,10,30,02,46,0.00
2009,10,30,02,47,0.00
2009,10,30,02,48,0.00
2009,10,30,02,49,0.00
2009,10,30,02,50,0.00
2009,10,30,02,51,0.00
2009,10,30,02,52,0.00
2009,10,30,02,53,0.00
2009,10,30,02,54,0.00
2009,10,30,02,55,0.00
2009,10,30,02,56,0.00
2009,10,30,02,57,0.00
2009,10,30,02,58,0.00
2009,10,30,02,59,0.00
2009,10,30,03,00,0.00
2009,10,30,03,01,0.00
2009,10,30,03,02,0.00
2009,10,30,03,03,0.00
2009,10,30,03,04,0.00
2009,10,30,03,05,0.00
2009,10,30,03,06,0.00
2009,10,30,03,07,0.00
2009,10,30,03,08,0.00
2009,10,30,03,09,0.00
2009,10,30,03,10,0.00
2009,10,30,03,11,0.00
2009,10,30,03,12,0.00
2009,10,30,03,13,0.00
2009,10,30,03,14,0.00
2009,10,30,03,15,0.00
2009,10,30,03,16,0.00
2009,10,30,03,17,0.00
2009,10,30,03,18,0.00
2009,10,30,03,19,0.00
2009,10,30,03,20,0.00
2009,10,30,03,21,0.00
2009,10,30,03,22,0.00
2009,10,30,03,23,0.00
2009,10,30,03,24,0.00
2009,10,30,03,25,0.00
2009,10,30,03,26,0.00
2009,10,30,03,27,0.00
2009,10,30,03,28,0.00
2009,10,30,03,29,0.00
2009,10,30,03,30,0.00
2009,10,30,03,31,0.00
2009,10,30,03,32,0.00
2009,10,30,03,33,0.00
2009,10,30,03,34,0.00
2009,10,30,03,35,0.00
2009,10,30,03,36,0.00
2009,10,30,03,37,0.00
2009,10,30,03,38,0.00
2009,10,30,03,39,0.00
2009,10,30,03,40,0.00
2009,10,30,03,41,0.00
2009,10,30,03,42,0.00
2009,10,30,03,43,0.00
2009,10,30,03,44,0.00
2009,10,30,03,45,0.00
2009,10,30,03,46,0.00
2009,10,30,03,47,0.00
2009,10,30,03,48,0.00
2009,10,30,03,49,0.00
2009,10,30,03,50,0.00
2009,10,30,03,51,0.00
2009,10,30,03,52,0.00
2009,10,30,03,53,0.00
2009,10,30,03,54,0.00
2009,10,30,03,55,0.00
2009,10,30,03,56,0.00
2009,10,30,03,57,0.00
2009,10,30,03,58,0.00
2009,10,30,03,59,0.00
2009,10,30,04,00,0.00
2009,10,30,04,01,0.00
2009,10,30,04,02,0.00
2009,10,30,04,03,0.00
2009,10,30,04,04,0.00
2009,10,30,04,05,0.00
2009,10,30,04,06,0.00
2009,10,30,04,07,0.00
2009,10,30,04,08,0.00
2009,10,30,04,09,0.00
2009,10,30,04,10,0.00
2009,10,30,04,11,0.00
2009,10,30,04,12,0.00
2009,10,30,04,13,0.00
2009,10,30,04,14,0.00
2009,10,30,04,15,0.00
2009,10,30,04,16,0.00
2009,10,30,04,17,0.00
2009,10,30,04,18,0.00
2009,10,30,04,19,0.00
2009,10,30,04,20,0.00
2009,10,30,04,21,0.00
2009,10,30,04,22,0.00
2009,10,30,04,23,0.00
2009,10,30,04,24,0.00
2009,10,30,04,25,0.00
2009,10,30,04,26,0.00
2009,10,30,04,27,0.00
2009,10,30,04,28,0.00
2009,10,30,04,29,0.00
2009,10,30,04,30,0.00
2009,10,30,04,31,0.00
2009,10,30,04,32,0.00
2009,10,30,04,33,0.00
2009,10,30,04,34,0.00
2009,10,30,04,35,0.00
2009,10,30,04,36,0.00
2009,10,30,04,37,0.00
2009,10,30,04,38,0.00
2009,10,30,04,39,0.00
2009,10,30,04,40,0.00
2009,10,30,04,41,0.00
2009,10,30,04,42,0.00
2009,10,30,04,43,0.00
2009,10,30,04,44,0.00
2009,10,30,04,45,0.00
2009,10,30,04,46,0.00
2009,10,30,04,47,0.00
2009,10,30,04,48,0.00
2009,10,30,04,49,0.00
2009,10,30,04,50,0.00
2009,10,30,04,51,0.00
2009,10,30,04,52,0.00
2009,10,30,04,53,0.00
2009,10,30,04,54,0.00
2009,10,30,04,55,0.00
2009,10,30,04,56,0.00
2009,10,30,04,57,0.00
2009,10,30,04,58,0.00
2009,10,30,04,59,0.00
2009,10,30,05,00,0.00
2009,10,30,05,01,0.00
2009,10,30,05,02,0.00
2009,10,30,05,03,0.00
2009,10,30,05,04,0.00
2009,10,30,05,05,0.00
2009,10,30,05,06,0.00
2009,10,30,05,07,0.00
2009,10,30,05,08,0.00
2009,10,30,05,09,0.00
2009,10,30,05,10,0.00
2009,10,30,05,11,0.00
2009,10,30,05,12,0.00
2009,10,30,05,13,0.00
2009,10,30,05,14,0.00
2009,10,30,05,15,0.00
2009,10,30,05,16,0.00
2009,10,30,05,17,0.00
2009,10,30,05,18,0.00
2009,10,30,05,19,0.00
2009,10,30,05,20,0.00
2009,10,30,05,21,0.00
2009,10,30,05,22,0.00
2009,10,30,05,23,0.00
2009,10,30,05,24,0.00
2009,10,30,05,25,0.00
2009,10,30,05,26,0.00
2009,10,30,05,27,0.00
2009,10,30,05,28,0.00
2009,10,30,05,29,0.00
2009,10,30,05,30,0.00
2009,10,30,05,31,0.00
2009,10,30,05,32,0.00
2009,10,30,05,33,0.00
2009,10,30,05,34,0.00
2009,10,30,05,35,0.00
2009,10,30,05,36,0.00
2009,10,30,05,37,0.00
2009,10,30,05,38,0.00
2009,10,30,05,39,0.00
2009,10,30,05,40,0.00
2009,10,30,05,41,0.00
2009,10,30,05,42,0.00
2009,10,30,05,43,0.00
2009,10,30,05,44,0.00
2009,10,30,05,45,0.00
2009,10,30,05,46,0.00
2009,10,30,05,47,0.00
2009,10,30,05,48,0.00
2009,10,30,05,49,0.00
2009,10,30,05,50,0.00
2009,10,30,05,51,0.00
2009,10,30,05,52,0.00
2009,10,30,05,53,0.00
2009,10,30,05,54,0.00
2009,10,30,05,55,0.00
2009,10,30,05,56,0.00
2009,10,30,05,57,0.00
2009,10,30,05,58,0.00
2009,10,30,05,59,0.00
2009,10,30,06,00,0.00
2009,10,30,06,01,0.00
2009,10,30,06,02,0.00
2009,10,30,06,03,0.00
2009,10,30,06,04,0.00
2009,10,30,06,05,0.00
2009,10,30,06,06,0.00
2009,10,30,06,07,0.00
2009,10,30,06,08,0.00
2009,10,30,06,09,0.00
2009,10,30,06,10,0.00
2009,10,30,06,11,0.00
2009,10,30,06,12,0.00
2009,10,30,06,13,0.00
2009,10,30,06,14,0.00
2009,10,30,06,15,0.00
2009,10,30,06,16,0.00
2009,10,30,06,17,0.00
2009,10,30,06,18,0.00
2009,10,30,06,19,0.00
2009,10,30,06,20,0.00
2009,10,30,06,21,0.00
2009,10,30,06,22,0.00
2009,10,30,06,23,0.00
2009,10,30,06,24,0.00
2009,10,30,06,25,0.00
2009,10,30,06,26,0.00
2009,10,30,06,27,0.00
2009,10,30,06,28,0.00
2009,10,30,06,29,0.00
2009,10,30,06,30,0.00
2009,10,30,06,31,0.00
2009,10,30,06,32,0.00
2009,10,30,06,33,0.00
2009,10,30,06,34,0.00
2009,10,30,06,35,0.00
2009,10,30,06,36,0.00
2009,10,30,06,37,0.00
2009,10,30,06,38,0.00
2009,10,30,06,39,0.00
2009,10,30,06,40,0.00
2009,10,30,06,41,0.00
2009,10,30,06,42,0.00
2009,10,30,06,43,0.00
2009,10,30,06,44,0.00
2009,10,30,06,45,0.00
2009,10,30,06,46,0.00
2009,10,30,06,47,0.00
2009,10,30,06,48,0.00
2009,10,30,06,49,0.00
2009,10,30,06,50,0.00
2009,10,30,06,51,0.00
2009,10,30,06,52,0.00
2009,10,30,06,53,0.00
2009,10,30,06,54,0.00
2009,10,30,06,55,0.00
2009,10,30,06,56,0.00
2009,10,30,06,57,0.00
2009,10,30,06,58,0.00
2009,10,30,06,59,0.00
2009,10,30,07,00,0.00
2009,10,30,07,01,0.00
2009,10,30,07,02,0.00
2009,10,30,07,03,0.00
2009,10,30,07,04,0.00
2009,10,30,07,05,0.00
2009,10,30,07,06,0.00
2009,10,30,07,07,0.00
2009,10,30,07,08,0.00
2009,10,30,07,09,0.00
2009,10,30,07,10,0.00
2009,10,30,07,11,0.00
2009,10,30,07,12,0.00
2009,10,30,07,13,0.00
2009,10,30,07,14,0.00
2009,10,30,07,15,0.00
2009,10,30,07,16,0.00
2009,10,30,07,17,0.00
2009,10,30,07,18,0.00
2009,10,30,07,19,0.00
2009,10,30,07,20,0.00
2009,10,30,07,21,0.00
2009,10,30,07,22,0.00
2009,10,30,07,23,0.00
2009,10,30,07,24,0.00
2009,10,30,07,25,0.00
2009,10,30,07,26,0.00
2009,10,30,07,27,0.00
2009,10,30,07,28,0.00
2009,10,30,07,29,0.00
2009,10,30,07,30,0.00
2009,10,30,07,31,0.00
2009,10,30,07,32,0.00
2009,10,30,07,33,0.00
2009,10,30,07,34,0.00
2009,10,30,07,35,0.00
2009,10,30,07,36,0.00
2009,10,30,07,37,0.00
2009,10,30,07,38,0.00
2009,10,30,07,39,0.00
2009,10,30,07,40,0.00
2009,10,30,07,41,0.00
2009,10,30,07,42,0.00
2009,10,30,07,43,0.00
2009,10,30,07,44,0.00
2009,10,30,07,45,0.00
2009,10,30,07,46,0.00
2009,10,30,07,47,0.00
2009,10,30,07,48,0.00
2009,10,30,07,49,0.00
2009,10,30,07,50,0.00
2009,10,30,07,51,0.00
2009,10,30,07,52,0.00
2009,10,30,07,53,0.00
2009,10,30,07,54,0.00
2009,10,30,07,55,0.00
2009,10,30,07,56,0.00
2009,10,30,07,57,0.00
2009,10,30,07,58,0.00
2009,10,30,07,59,0.00
2009,10,30,08,00,0.00
2009,10,30,08,01,0.00
2009,10,30,08,02,0.00
2009,10,30,08,03,0.00
2009,10,30,08,04,0.00
2009,10,30,08,05,0.00
2009,10,30,08,06,0.00
2009,10,30,08,07,0.00
2009,10,30,08,08,0.00
2009,10,30,08,09,0.00
2009,10,30,08,10,0.00
2009,10,30,08,11,1.20
2009,10,30,08,12,5.00
2009,10,30,08,13,5.80
2009,10,30,08,14,7.00
2009,10,30,08,15,7.00
2009,10,30,08,16,10.30
2009,10,30,08,17,12.00
2009,10,30,08,18,13.60
2009,10,30,08,19,14.00
2009,10,30,08,20,12.40
2009,10,30,08,21,11.00
2009,10,30,08,22,11.00
2009,10,30,08,23,11.00
2009,10,30,08,24,11.20
2009,10,30,08,25,12.00
2009,10,30,08,26,12.00
2009,10,30,08,27,12.00
2009,10,30,08,28,12.80
2009,10,30,08,29,14.00
2009,10,30,08,30,14.00
2009,10,30,08,31,15.30
2009,10,30,08,32,14.60
2009,10,30,08,33,15.60
2009,10,30,08,34,17.80
2009,10,30,08,35,18.00
2009,10,30,08,36,16.20
2009,10,30,08,37,16.00
2009,10,30,08,38,16.00
2009,10,30,08,39,16.50
2009,10,30,08,40,19.50
2009,10,30,08,41,21.60
2009,10,30,08,42,23.80
2009,10,30,08,43,25.40
2009,10,30,08,44,27.10
2009,10,30,08,45,28.00
2009,10,30,08,46,28.00
2009,10,30,08,47,26.00
2009,10,30,08,48,25.00
2009,10,30,08,49,25.90
2009,10,30,08,50,29.20
2009,10,30,08,51,32.00
2009,10,30,08,52,30.00
2009,10,30,08,53,29.00
2009,10,30,08,54,21.70
2009,10,30,08,55,26.00
2009,10,30,08,56,30.90
2009,10,30,08,57,33.00
2009,10,30,08,58,30.60
2009,10,30,08,59,28.90
2009,10,30,09,00,30.00
2009,10,30,09,01,33.20
2009,10,30,09,02,35.00
2009,10,30,09,03,37.80
2009,10,30,09,04,32.80
2009,10,30,09,05,26.40
2009,10,30,09,06,26.00
2009,10,30,09,07,26.00
2009,10,30,09,08,26.80
2009,10,30,09,09,40.00
2009,10,30,09,10,38.40
2009,10,30,09,11,31.30
2009,10,30,09,12,26.90
2009,10,30,09,13,25.00
2009,10,30,09,14,23.90
2009,10,30,09,15,22.00
2009,10,30,09,16,21.00
2009,10,30,09,17,21.00
2009,10,30,09,18,21.00
2009,10,30,09,19,24.00
2009,10,30,09,20,25.90
2009,10,30,09,21,30.00
2009,10,30,09,22,35.30
2009,10,30,09,23,40.20
2009,10,30,09,24,42.00
2009,10,30,09,25,38.90
2009,10,30,09,26,27.00
2009,10,30,09,27,24.20
2009,10,30,09,28,23.00
2009,10,30,09,29,20.40
2009,10,30,09,30,17.00
2009,10,30,09,31,14.70
2009,10,30,09,32,14.00
2009,10,30,09,33,14.00
2009,10,30,09,34,17.50
2009,10,30,09,35,18.80
2009,10,30,09,36,21.00
2009,10,30,09,37,19.00
2009,10,30,09,38,17.80
2009,10,30,09,39,14.00
2009,10,30,09,40,14.50
2009,10,30,09,41,16.00
2009,10,30,09,42,16.00
2009,10,30,09,43,15.20
2009,10,30,09,44,14.00
2009,10,30,09,45,15.20
2009,10,30,09,46,17.30
2009,10,30,09,47,18.70
2009,10,30,09,48,19.00
2009,10,30,09,49,23.50
2009,10,30,09,50,29.70
2009,10,30,09,51,30.00
2009,10,30,09,52,32.90
2009,10,30,09,53,31.60
2009,10,30,09,54,28.00
2009,10,30,09,55,28.00
2009,10,30,09,56,30.70
2009,10,30,09,57,40.20
2009,10,30,09,58,50.70
2009,10,30,09,59,60.20
2009,10,30,10,00,65.00
2009,10,30,10,01,69.50
2009,10,30,10,02,72.00
2009,10,30,10,03,72.00
2009,10,30,10,04,70.20
2009,10,30,10,05,73.20
2009,10,30,10,06,74.00
2009,10,30,10,07,83.40
2009,10,30,10,08,91.20
2009,10,30,10,09,95.80
2009,10,30,10,10,101.60
2009,10,30,10,11,107.00
2009,10,30,10,12,107.00
2009,10,30,10,13,112.80
2009,10,30,10,14,121.30
2009,10,30,10,15,127.10
2009,10,30,10,16,137.30
2009,10,30,10,17,143.10
2009,10,30,10,18,140.40
2009,10,30,10,19,137.30
2009,10,30,10,20,134.20
2009,10,30,10,21,130.00
2009,10,30,10,22,130.00
2009,10,30,10,23,124.40
2009,10,30,10,24,112.60
2009,10,30,10,25,102.40
2009,10,30,10,26,95.10
2009,10,30,10,27,88.60
2009,10,30,10,28,86.80
2009,10,30,10,29,88.90
2009,10,30,10,30,90.00
2009,10,30,10,31,90.00
2009,10,30,10,32,90.00
2009,10,30,10,33,90.00
2009,10,30,10,34,88.50
2009,10,30,10,35,89.90
2009,10,30,10,36,90.00
2009,10,30,10,37,93.00
2009,10,30,10,38,93.00
2009,10,30,10,39,92.50
2009,10,30,10,40,89.20
2009,10,30,10,41,85.40
2009,10,30,10,42,84.00
2009,10,30,10,43,82.80
2009,10,30,10,44,82.00
2009,10,30,10,45,83.60
2009,10,30,10,46,88.00
2009,10,30,10,47,90.00
2009,10,30,10,48,88.60
2009,10,30,10,49,84.70
2009,10,30,10,50,84.00
2009,10,30,10,51,85.80
2009,10,30,10,52,86.00
2009,10,30,10,53,88.00
2009,10,30,10,54,86.90
2009,10,30,10,55,80.10
2009,10,30,10,56,77.70
2009,10,30,10,57,80.40
2009,10,30,10,58,84.80
2009,10,30,10,59,89.30
2009,10,30,11,00,93.40
2009,10,30,11,01,96.90
2009,10,30,11,02,99.50
2009,10,30,11,03,96.10
2009,10,30,11,04,93.20
2009,10,30,11,05,100.30
2009,10,30,11,06,105.00
2009,10,30,11,07,105.00
2009,10,30,11,08,108.80
2009,10,30,11,09,103.30
2009,10,30,11,10,91.70
2009,10,30,11,11,79.70
2009,10,30,11,12,79.70
2009,10,30,11,13,89.40
2009,10,30,11,14,102.40
2009,10,30,11,15,110.20
2009,10,30,11,16,109.70
2009,10,30,11,17,107.60
2009,10,30,11,18,107.00
2009,10,30,11,19,104.50
2009,10,30,11,20,106.80
2009,10,30,11,21,111.00
2009,10,30,11,22,113.40
2009,10,30,11,23,119.80
2009,10,30,11,24,113.30
2009,10,30,11,25,98.00
2009,10,30,11,26,93.30
2009,10,30,11,27,83.70
2009,10,30,11,28,92.20
2009,10,30,11,29,95.90
2009,10,30,11,30,96.00
2009,10,30,11,31,103.50
2009,10,30,11,32,103.80
2009,10,30,11,33,91.30
2009,10,30,11,34,90.60
2009,10,30,11,35,96.60
2009,10,30,11,36,91.00
2009,10,30,11,37,90.00
2009,10,30,11,38,89.60
2009,10,30,11,39,86.80
2009,10,30,11,40,94.10
2009,10,30,11,41,108.80
2009,10,30,11,42,124.20
2009,10,30,11,43,137.30
2009,10,30,11,44,147.70
2009,10,30,11,45,156.30
2009,10,30,11,46,165.40
2009,10,30,11,47,178.90
2009,10,30,11,48,183.00
2009,10,30,11,49,176.20
2009,10,30,11,50,169.30
2009,10,30,11,51,156.00
2009,10,30,11,52,142.00
2009,10,30,11,53,142.80
2009,10,30,11,54,155.00
2009,10,30,11,55,155.70
2009,10,30,11,56,163.10
2009,10,30,11,57,176.00
2009,10,30,11,58,167.10
2009,10,30,11,59,150.40
2009,10,30,12,00,143.60
2009,10,30,12,01,144.40
2009,10,30,12,02,153.60
2009,10,30,12,03,159.10
2009,10,30,12,04,165.20
2009,10,30,12,05,163.20
2009,10,30,12,06,162.10
2009,10,30,12,07,166.80
2009,10,30,12,08,176.70
2009,10,30,12,09,200.50
2009,10,30,12,10,195.10
2009,10,30,12,11,199.90
2009,10,30,12,12,193.10
2009,10,30,12,13,191.30
2009,10,30,12,14,193.00
2009,10,30,12,15,184.80
2009,10,30,12,16,169.30
2009,10,30,12,17,155.60
2009,10,30,12,18,145.50
2009,10,30,12,19,141.30
2009,10,30,12,20,141.00
2009,10,30,12,21,134.00
2009,10,30,12,22,123.00
2009,10,30,12,23,114.70
2009,10,30,12,24,122.60
2009,10,30,12,25,131.20
2009,10,30,12,26,134.20
2009,10,30,12,27,130.80
2009,10,30,12,28,125.10
2009,10,30,12,29,121.00
2009,10,30,12,30,122.20
2009,10,30,12,31,126.30
2009,10,30,12,32,129.40
2009,10,30,12,33,130.00
2009,10,30,12,34,113.20
2009,10,30,12,35,99.80
2009,10,30,12,36,88.00
2009,10,30,12,37,84.00
2009,10,30,12,38,80.80
2009,10,30,12,39,77.20
2009,10,30,12,40,80.20
2009,10,30,12,41,86.10
2009,10,30,12,42,92.20
2009,10,30,12,43,95.80
2009,10,30,12,44,97.00
2009,10,30,12,45,99.90
2009,10,30,12,46,108.60
2009,10,30,12,47,120.40
2009,10,30,12,48,131.40
2009,10,30,12,49,134.20
2009,10,30,12,50,132.10
2009,10,30,12,51,139.00
2009,10,30,12,52,155.00
2009,10,30,12,53,174.00
2009,10,30,12,54,173.20
2009,10,30,12,55,168.50
2009,10,30,12,56,170.50
2009,10,30,12,57,181.70
2009,10,30,12,58,188.00
2009,10,30,12,59,186.50
2009,10,30,13,00,178.30
2009,10,30,13,01,169.50
2009,10,30,13,02,168.30
2009,10,30,13,03,167.40
2009,10,30,13,04,170.50
2009,10,30,13,05,173.40
2009,10,30,13,06,167.00
2009,10,30,13,07,153.70
2009,10,30,13,08,140.90
2009,10,30,13,09,139.00
2009,10,30,13,10,139.00
2009,10,30,13,11,137.80
2009,10,30,13,12,135.00
2009,10,30,13,13,134.60
2009,10,30,13,14,131.30
2009,10,30,13,15,133.30
2009,10,30,13,16,143.60
2009,10,30,13,17,156.90
2009,10,30,13,18,165.80
2009,10,30,13,19,167.00
2009,10,30,13,20,158.50
2009,10,30,13,21,151.70
2009,10,30,13,22,155.00
2009,10,30,13,23,171.70
2009,10,30,13,24,183.30
2009,10,30,13,25,185.20
2009,10,30,13,26,187.90
2009,10,30,13,27,195.10
2009,10,30,13,28,198.20
2009,10,30,13,29,194.90
2009,10,30,13,30,193.00
2009,10,30,13,31,193.00
2009,10,30,13,32,197.20
2009,10,30,13,33,197.40
2009,10,30,13,34,198.80
2009,10,30,13,35,199.80
2009,10,30,13,36,199.00
2009,10,30,13,37,195.00
2009,10,30,13,38,196.40
2009,10,30,13,39,191.00
2009,10,30,13,40,186.00
2009,10,30,13,41,186.60
2009,10,30,13,42,186.90
2009,10,30,13,43,185.40
2009,10,30,13,44,187.10
2009,10,30,13,45,190.00
2009,10,30,13,46,194.80
2009,10,30,13,47,197.00
2009,10,30,13,48,198.60
2009,10,30,13,49,218.40
2009,10,30,13,50,236.10
2009,10,30,13,51,240.60
2009,10,30,13,52,239.00
2009,10,30,13,53,239.20
2009,10,30,13,54,241.40
2009,10,30,13,55,242.10
2009,10,30,13,56,240.20
2009,10,30,13,57,251.70
2009,10,30,13,58,266.10
2009,10,30,13,59,264.50
2009,10,30,14,00,260.70
2009,10,30,14,01,253.30
2009,10,30,14,02,247.70
2009,10,30,14,03,243.50
2009,10,30,14,04,241.20
2009,10,30,14,05,245.70
2009,10,30,14,06,241.50
2009,10,30,14,07,261.00
2009,10,30,14,08,267.20
2009,10,30,14,09,253.40
2009,10,30,14,10,254.00
2009,10,30,14,11,246.90
2009,10,30,14,12,235.10
2009,10,30,14,13,226.30
2009,10,30,14,14,221.40
2009,10,30,14,15,215.90
2009,10,30,14,16,209.70
2009,10,30,14,17,204.90
2009,10,30,14,18,196.60
2009,10,30,14,19,184.40
2009,10,30,14,20,175.80
2009,10,30,14,21,169.00
2009,10,30,14,22,172.00
2009,10,30,14,23,176.90
2009,10,30,14,24,185.90
2009,10,30,14,25,190.40
2009,10,30,14,26,190.70
2009,10,30,14,27,186.10
2009,10,30,14,28,178.50
2009,10,30,14,29,172.00
2009,10,30,14,30,180.20
2009,10,30,14,31,193.10
2009,10,30,14,32,200.20
2009,10,30,14,33,199.50
2009,10,30,14,34,187.50
2009,10,30,14,35,196.40
2009,10,30,14,36,213.00
2009,10,30,14,37,174.00
2009,10,30,14,38,172.90
2009,10,30,14,39,159.60
2009,10,30,14,40,140.20
2009,10,30,14,41,131.20
2009,10,30,14,42,143.20
2009,10,30,14,43,146.60
2009,10,30,14,44,144.50
2009,10,30,14,45,152.00
2009,10,30,14,46,157.30
2009,10,30,14,47,160.40
2009,10,30,14,48,164.30
2009,10,30,14,49,144.70
2009,10,30,14,50,133.50
2009,10,30,14,51,141.00
2009,10,30,14,52,171.00
2009,10,30,14,53,173.20
2009,10,30,14,54,190.70
2009,10,30,14,55,177.80
2009,10,30,14,56,178.50
2009,10,30,14,57,197.60
2009,10,30,14,58,208.90
2009,10,30,14,59,198.70
2009,10,30,15,00,180.00
2009,10,30,15,01,159.00
2009,10,30,15,02,149.00
2009,10,30,15,03,157.60
2009,10,30,15,04,160.00
2009,10,30,15,05,168.50
2009,10,30,15,06,174.00
2009,10,30,15,07,171.00
2009,10,30,15,08,181.00
2009,10,30,15,09,181.70
2009,10,30,15,10,185.00
2009,10,30,15,11,177.60
2009,10,30,15,12,153.00
2009,10,30,15,13,139.90
2009,10,30,15,14,133.30
2009,10,30,15,15,141.20
2009,10,30,15,16,162.80
2009,10,30,15,17,225.60
2009,10,30,15,18,187.10
2009,10,30,15,19,208.40
2009,10,30,15,20,290.20
2009,10,30,15,21,295.00
2009,10,30,15,22,295.00
2009,10,30,15,23,117.90
2009,10,30,15,24,160.10
2009,10,30,15,25,152.90
2009,10,30,15,26,149.30
2009,10,30,15,27,133.80
2009,10,30,15,28,137.00
2009,10,30,15,29,137.00
2009,10,30,15,30,101.60
2009,10,30,15,31,82.20
2009,10,30,15,32,85.30
2009,10,30,15,33,98.90
2009,10,30,15,34,149.90
2009,10,30,15,35,156.00
2009,10,30,15,36,145.20
2009,10,30,15,37,100.00
2009,10,30,15,38,71.70
2009,10,30,15,39,69.00
2009,10,30,15,40,68.60
2009,10,30,15,41,65.50
2009,10,30,15,42,62.00
2009,10,30,15,43,62.00
2009,10,30,15,44,60.20
2009,10,30,15,45,59.20
2009,10,30,15,46,60.00
2009,10,30,15,47,61.40
2009,10,30,15,48,66.10
2009,10,30,15,49,68.50
2009,10,30,15,50,67.40
2009,10,30,15,51,74.00
2009,10,30,15,52,74.00
2009,10,30,15,53,74.80
2009,10,30,15,54,80.60
2009,10,30,15,55,79.40
2009,10,30,15,56,81.00
2009,10,30,15,57,82.20
2009,10,30,15,58,86.40
2009,10,30,15,59,93.50
2009,10,30,16,00,101.10
2009,10,30,16,01,105.70
2009,10,30,16,02,105.50
2009,10,30,16,03,102.50
2009,10,30,16,04,98.20
2009,10,30,16,05,90.40
2009,10,30,16,06,86.00
2009,10,30,16,07,86.00
2009,10,30,16,08,85.80
2009,10,30,16,09,84.00
2009,10,30,16,10,83.40
2009,10,30,16,11,79.70
2009,10,30,16,12,75.90
2009,10,30,16,13,72.60
2009,10,30,16,14,68.40
2009,10,30,16,15,66.00
2009,10,30,16,16,65.00
2009,10,30,16,17,63.60
2009,10,30,16,18,60.50
2009,10,30,16,19,58.20
2009,10,30,16,20,56.40
2009,10,30,16,21,56.00
2009,10,30,16,22,58.00
2009,10,30,16,23,58.00
2009,10,30,16,24,58.70
2009,10,30,16,25,63.20
2009,10,30,16,26,68.00
2009,10,30,16,27,71.40
2009,10,30,16,28,74.00
2009,10,30,16,29,73.10
2009,10,30,16,30,70.80
2009,10,30,16,31,68.10
2009,10,30,16,32,62.50
2009,10,30,16,33,55.30
2009,10,30,16,34,47.80
2009,10,30,16,35,42.30
2009,10,30,16,36,37.50
2009,10,30,16,37,35.00
2009,10,30,16,38,33.00
2009,10,30,16,39,32.80
2009,10,30,16,40,32.00
2009,10,30,16,41,32.00
2009,10,30,16,42,32.00
2009,10,30,16,43,31.10
2009,10,30,16,44,30.00
2009,10,30,16,45,28.80
2009,10,30,16,46,28.00
2009,10,30,16,47,28.00
2009,10,30,16,48,28.00
2009,10,30,16,49,28.00
2009,10,30,16,50,28.00
2009,10,30,16,51,28.00
2009,10,30,16,52,28.00
2009,10,30,16,53,28.00
2009,10,30,16,54,28.00
2009,10,30,16,55,27.50
2009,10,30,16,56,25.70
2009,10,30,16,57,24.20
2009,10,30,16,58,22.10
2009,10,30,16,59,19.70
2009,10,30,17,00,16.80
2009,10,30,17,01,14.90
2009,10,30,17,02,14.00
2009,10,30,17,03,12.40
2009,10,30,17,04,11.10
2009,10,30,17,05,11.00
2009,10,30,17,06,11.00
2009,10,30,17,07,9.00
2009,10,30,17,08,9.00
2009,10,30,17,09,9.00
2009,10,30,17,10,9.00
2009,10,30,17,11,9.00
2009,10,30,17,12,8.20
2009,10,30,17,13,7.00
2009,10,30,17,14,7.00
2009,10,30,17,15,5.80
2009,10,30,17,16,5.00
2009,10,30,17,17,5.00
2009,10,30,17,18,5.00
2009,10,30,17,19,5.00
2009,10,30,17,20,5.00
2009,10,30,17,21,7.00
2009,10,30,17,22,7.00
2009,10,30,17,23,7.00
2009,10,30,17,24,7.00
2009,10,30,17,25,6.60
2009,10,30,17,26,5.00
2009,10,30,17,27,5.00
2009,10,30,17,28,5.00
2009,10,30,17,29,5.00
2009,10,30,17,30,5.00